RYR8YU LFML-EBCI

Flight info

Callsign RYR8YU
Flight time N/A
Altitude 34000
Route ETREK DCT MADOT DCT MOPEM DCT CACHI DCT AVLON DCT OKRIX DCT BRY DCT CLM DCT KOPOR DCT SOMIL DCT BELDI DCT VEKIN Z173 ARVOL
Aircraft B738/M-SDE2E3FGHIRWXY/LB1

Departure

Time 2026-05-05 14:04
Airport Marseille Provence Airport (LFML)

Arrival

Time N/A
Airport Brussels South Charleroi Airport (EBCI)
Time Latitude Longitude Altitude Speed Heading
2026-05-05 13:37 43.44214 5.21811 36 ft 0 kts 90°
2026-05-05 13:58 43.44213 5.21816 36 ft 2 kts 94°
2026-05-05 13:58 43.44196 5.21844 34 ft 5 kts 159°
2026-05-05 13:59 43.44106 5.21796 36 ft 9 kts 220°
2026-05-05 13:59 43.44050 5.21727 36 ft 12 kts 224°
2026-05-05 14:00 43.43922 5.21544 36 ft 13 kts 249°
2026-05-05 14:00 43.43934 5.21468 35 ft 13 kts 311°
2026-05-05 14:00 43.44046 5.21310 36 ft 22 kts 314°
2026-05-05 14:00 43.44165 5.21140 36 ft 26 kts 314°
2026-05-05 14:01 43.44281 5.20956 34 ft 25 kts 301°
2026-05-05 14:01 43.44375 5.20771 36 ft 23 kts 314°
2026-05-05 14:01 43.44485 5.20615 36 ft 22 kts 314°
2026-05-05 14:01 43.44591 5.20463 36 ft 22 kts 314°
2026-05-05 14:02 43.44695 5.20317 36 ft 21 kts 313°
2026-05-05 14:02 43.44796 5.20173 36 ft 20 kts 314°
2026-05-05 14:02 43.44893 5.20034 36 ft 20 kts 314°
2026-05-05 14:02 43.44962 5.19934 36 ft 11 kts 312°
2026-05-05 14:03 43.44973 5.19838 36 ft 11 kts 240°
2026-05-05 14:03 43.44924 5.19770 35 ft 7 kts 222°
2026-05-05 14:03 43.44882 5.19781 34 ft 8 kts 134°
2026-05-05 14:03 43.44765 5.19949 33 ft 56 kts 134°
2026-05-05 14:04 43.44332 5.20564 36 ft 121 kts 134°
2026-05-05 14:04 43.43647 5.21559 252 ft 151 kts 137°
2026-05-05 14:04 43.42897 5.22614 885 ft 157 kts 139°
2026-05-05 14:04 43.42110 5.23705 1565 ft 164 kts 137°
2026-05-05 14:05 43.41668 5.25175 2261 ft 177 kts 88°
2026-05-05 14:05 43.41934 5.26847 2950 ft 186 kts 69°
2026-05-05 14:05 43.42654 5.28332 3536 ft 203 kts 44°
2026-05-05 14:05 43.43955 5.29341 3810 ft 227 kts 13°
2026-05-05 14:06 43.45572 5.29254 4126 ft 239 kts 340°
2026-05-05 14:06 43.47149 5.28467 4805 ft 243 kts 338°
2026-05-05 14:06 43.48724 5.27696 5719 ft 237 kts 338°
2026-05-05 14:06 43.50274 5.26967 6562 ft 235 kts 338°
2026-05-05 14:07 43.51845 5.26257 7197 ft 241 kts 338°
2026-05-05 14:07 43.53461 5.25545 7870 ft 245 kts 339°
2026-05-05 14:07 43.55086 5.24841 8590 ft 246 kts 339°
2026-05-05 14:07 43.56739 5.24127 9250 ft 251 kts 339°
2026-05-05 14:08 43.58411 5.23407 9941 ft 254 kts 339°
2026-05-05 14:08 43.60147 5.22634 10242 ft 274 kts 339°
2026-05-05 14:08 43.62036 5.21777 10431 ft 298 kts 339°
2026-05-05 14:08 43.64087 5.20849 10622 ft 321 kts 339°
2026-05-05 14:09 43.66279 5.19864 10901 ft 340 kts 340°
2026-05-05 14:09 43.68601 5.19002 11444 ft 350 kts 343°
2026-05-05 14:09 43.70986 5.18242 12135 ft 354 kts 344°
2026-05-05 14:09 43.73403 5.17503 12861 ft 358 kts 344°
2026-05-05 14:10 43.75852 5.16756 13567 ft 363 kts 343°
2026-05-05 14:10 43.78333 5.15992 14233 ft 367 kts 343°
2026-05-05 14:10 43.80838 5.15210 14929 ft 371 kts 343°
2026-05-05 14:10 43.83363 5.14415 15610 ft 374 kts 343°
2026-05-05 14:11 43.85916 5.13602 16302 ft 378 kts 342°
2026-05-05 14:11 43.88494 5.12777 17005 ft 382 kts 342°
2026-05-05 14:11 43.91097 5.11941 17691 ft 386 kts 342°
2026-05-05 14:11 43.93726 5.11094 18348 ft 390 kts 342°
2026-05-05 14:12 43.96387 5.10235 18938 ft 394 kts 342°
2026-05-05 14:12 43.99068 5.09370 19524 ft 397 kts 341°
2026-05-05 14:12 44.01769 5.08497 20114 ft 400 kts 341°
2026-05-05 14:12 44.04499 5.07615 20680 ft 404 kts 341°
2026-05-05 14:13 44.07247 5.06725 21241 ft 408 kts 341°
2026-05-05 14:13 44.10019 5.05825 21806 ft 411 kts 340°
2026-05-05 14:13 44.12813 5.04917 22396 ft 414 kts 340°
2026-05-05 14:13 44.15633 5.04000 22944 ft 418 kts 340°
2026-05-05 14:14 44.18476 5.03079 23469 ft 421 kts 340°
2026-05-05 14:14 44.21305 5.02159 23907 ft 425 kts 340°
2026-05-05 14:14 44.24194 5.01218 24353 ft 428 kts 339°
2026-05-05 14:14 44.27102 5.00268 24785 ft 431 kts 339°
2026-05-05 14:15 44.30029 4.99313 25215 ft 434 kts 339°
2026-05-05 14:15 44.32980 4.98348 25635 ft 437 kts 339°
2026-05-05 14:15 44.35950 4.97376 26061 ft 440 kts 339°
2026-05-05 14:15 44.38945 4.96396 26476 ft 443 kts 339°
2026-05-05 14:16 44.41950 4.95411 26874 ft 446 kts 339°
2026-05-05 14:16 44.44981 4.94413 27286 ft 449 kts 339°
2026-05-05 14:16 44.48032 4.93410 27687 ft 452 kts 339°
2026-05-05 14:16 44.51099 4.92402 28078 ft 454 kts 339°
2026-05-05 14:17 44.54184 4.91390 28486 ft 456 kts 340°
2026-05-05 14:17 44.57286 4.90371 28873 ft 458 kts 339°
2026-05-05 14:17 44.60398 4.89344 29219 ft 461 kts 339°
2026-05-05 14:17 44.63532 4.88308 29551 ft 464 kts 339°
2026-05-05 14:18 44.66684 4.87266 29876 ft 467 kts 339°
2026-05-05 14:18 44.69853 4.86217 30177 ft 469 kts 339°
2026-05-05 14:18 44.73032 4.85165 30480 ft 470 kts 339°
2026-05-05 14:18 44.76224 4.84105 30733 ft 473 kts 339°
2026-05-05 14:19 44.79433 4.83038 30970 ft 475 kts 339°
2026-05-05 14:19 44.82661 4.81964 31252 ft 478 kts 339°
2026-05-05 14:19 44.84805 4.81250 31453 ft 479 kts 339°
2026-05-05 14:19 44.88049 4.80172 31788 ft 478 kts 339°
2026-05-05 14:20 44.91274 4.79100 32243 ft 475 kts 340°
2026-05-05 14:20 44.94482 4.78030 32556 ft 474 kts 340°
2026-05-05 14:20 44.97698 4.76951 32827 ft 475 kts 340°
2026-05-05 14:20 45.00916 4.75874 33123 ft 475 kts 340°
2026-05-05 14:21 45.04133 4.74799 33483 ft 474 kts 339°
2026-05-05 14:21 45.07335 4.73729 33829 ft 473 kts 339°
2026-05-05 14:21 45.10537 4.72655 34097 ft 473 kts 340°
2026-05-05 14:21 45.13734 4.71580 34371 ft 472 kts 340°
2026-05-05 14:22 45.17957 4.70158 34710 ft 471 kts 340°
2026-05-05 14:22 45.20111 4.69431 34872 ft 471 kts 340°
2026-05-05 14:22 45.23301 4.68355 35124 ft 471 kts 340°
2026-05-05 14:22 45.26481 4.67280 35397 ft 469 kts 340°
2026-05-05 14:23 45.29655 4.66207 35687 ft 468 kts 341°
2026-05-05 14:23 45.32823 4.65134 35911 ft 469 kts 341°
2026-05-05 14:23 45.35998 4.64057 36143 ft 469 kts 342°
2026-05-05 14:23 45.39175 4.62977 36332 ft 470 kts 342°
2026-05-05 14:24 45.42353 4.61896 36533 ft 470 kts 342°
2026-05-05 14:24 45.45486 4.60830 36733 ft 470 kts 342°
2026-05-05 14:24 45.48664 4.59748 37001 ft 468 kts 342°
2026-05-05 14:24 45.51826 4.58669 37258 ft 467 kts 343°
2026-05-05 14:25 45.54984 4.57591 37483 ft 467 kts 343°
2026-05-05 14:25 45.58147 4.56509 37649 ft 467 kts 343°
2026-05-05 14:25 45.61311 4.55425 37821 ft 468 kts 342°
2026-05-05 14:25 45.64478 4.54336 37882 ft 470 kts 343°
2026-05-05 14:26 45.70836 4.52154 37865 ft 468 kts 343°
2026-05-05 14:26 45.77192 4.50264 37864 ft 465 kts 347°
2026-05-05 14:27 45.83485 4.48407 37867 ft 458 kts 340°
2026-05-05 14:27 45.89550 4.45695 37881 ft 457 kts 339°
2026-05-05 14:28 45.95657 4.42867 37887 ft 465 kts 339°
2026-05-05 14:28 46.01847 4.40072 37866 ft 467 kts 340°
2026-05-05 14:29 46.08073 4.37310 37862 ft 469 kts 340°
2026-05-05 14:29 46.14312 4.34550 37868 ft 469 kts 340°
2026-05-05 14:30 46.20551 4.31783 37855 ft 469 kts 340°
2026-05-05 14:30 46.26770 4.29016 37856 ft 467 kts 340°
2026-05-05 14:31 46.32967 4.26248 37854 ft 465 kts 340°
2026-05-05 14:31 46.39101 4.23503 37854 ft 464 kts 340°
2026-05-05 14:32 46.45255 4.20743 37854 ft 462 kts 340°
2026-05-05 14:32 46.51394 4.17983 37855 ft 461 kts 340°
2026-05-05 14:33 46.57518 4.15222 37853 ft 461 kts 340°
2026-05-05 14:33 46.63639 4.12469 37862 ft 461 kts 341°
2026-05-05 14:34 46.69767 4.09704 37854 ft 461 kts 340°
2026-05-05 14:34 46.75903 4.06918 37845 ft 462 kts 340°
2026-05-05 14:35 46.82046 4.04112 37857 ft 464 kts 340°
2026-05-05 14:35 46.88216 4.01295 37846 ft 465 kts 340°
2026-05-05 14:36 46.94397 3.98471 37851 ft 466 kts 341°
2026-05-05 14:36 47.00589 3.95634 37834 ft 467 kts 341°
2026-05-05 14:37 47.06788 3.92787 37842 ft 467 kts 340°
2026-05-05 14:37 47.12985 3.89932 37836 ft 467 kts 341°
2026-05-05 14:38 47.19181 3.87069 37832 ft 467 kts 341°
2026-05-05 14:38 47.25377 3.84206 37825 ft 467 kts 341°
2026-05-05 14:39 47.31571 3.81339 37831 ft 466 kts 341°
2026-05-05 14:39 47.37751 3.78467 37822 ft 465 kts 341°
2026-05-05 14:40 47.43920 3.75583 37826 ft 465 kts 341°
2026-05-05 14:40 47.50084 3.72699 37818 ft 464 kts 341°
2026-05-05 14:41 47.56237 3.69817 37808 ft 464 kts 341°
2026-05-05 14:41 47.62383 3.66930 37817 ft 463 kts 341°
2026-05-05 14:42 47.68528 3.64038 37811 ft 463 kts 341°
2026-05-05 14:42 47.74675 3.61135 37799 ft 463 kts 341°
2026-05-05 14:43 47.80822 3.58226 37809 ft 464 kts 341°
2026-05-05 14:43 47.86936 3.55324 37794 ft 464 kts 341°
2026-05-05 14:44 47.93131 3.52377 37795 ft 465 kts 341°
2026-05-05 14:44 47.99296 3.49439 37802 ft 465 kts 341°
2026-05-05 14:45 48.05418 3.46511 37786 ft 465 kts 341°
2026-05-05 14:45 48.11587 3.43555 37800 ft 465 kts 341°
2026-05-05 14:46 48.17749 3.40592 37804 ft 465 kts 341°
2026-05-05 14:46 48.23906 3.37625 37790 ft 464 kts 341°
2026-05-05 14:47 48.30045 3.34658 37783 ft 463 kts 341°
2026-05-05 14:47 48.36170 3.31687 37785 ft 462 kts 341°
2026-05-05 14:48 48.42270 3.28637 37776 ft 460 kts 338°
2026-05-05 14:48 48.48159 3.24941 37792 ft 457 kts 335°
2026-05-05 14:49 48.53975 3.21095 37791 ft 456 kts 335°
2026-05-05 14:49 48.59787 3.17316 37803 ft 454 kts 336°
2026-05-05 14:50 48.65610 3.13572 37794 ft 455 kts 336°
2026-05-05 14:50 48.71431 3.09828 37801 ft 454 kts 336°
2026-05-05 14:51 48.77251 3.06068 37801 ft 455 kts 336°
2026-05-05 14:51 48.83078 3.02298 37813 ft 456 kts 336°
2026-05-05 14:52 48.88740 2.97954 37814 ft 456 kts 331°
2026-05-05 14:52 48.91671 2.96113 37790 ft 458 kts 347°
2026-05-05 14:52 48.94828 2.95564 37823 ft 457 kts
2026-05-05 14:53 48.97988 2.96099 37715 ft 459 kts 12°
2026-05-05 14:53 49.01133 2.97127 37231 ft 464 kts 14°
2026-05-05 14:53 49.04258 2.98235 36854 ft 460 kts 14°
2026-05-05 14:53 49.07366 2.99350 36436 ft 458 kts 14°
2026-05-05 14:54 49.10458 3.00459 36034 ft 455 kts 14°
2026-05-05 14:54 49.13499 3.01513 35624 ft 452 kts 13°
2026-05-05 14:54 49.16577 3.02426 35215 ft 449 kts 13°
2026-05-05 14:54 49.19618 3.03405 34862 ft 443 kts 14°
2026-05-05 14:55 49.22586 3.04429 34817 ft 432 kts 15°
2026-05-05 14:55 49.25520 3.05448 34824 ft 435 kts 15°
2026-05-05 14:55 49.31516 3.07510 34843 ft 449 kts 14°
2026-05-05 14:56 49.37734 3.09598 34825 ft 466 kts 14°
2026-05-05 14:56 49.44141 3.11747 34814 ft 475 kts 14°
2026-05-05 14:57 49.50606 3.13923 34795 ft 476 kts 14°
2026-05-05 14:57 49.53810 3.15001 34636 ft 467 kts 14°
2026-05-05 14:57 49.56968 3.16066 34104 ft 464 kts 14°
2026-05-05 14:58 49.60125 3.17133 33358 ft 466 kts 14°
2026-05-05 14:58 49.63277 3.18199 32917 ft 460 kts 14°
2026-05-05 14:58 49.66407 3.19258 32503 ft 463 kts 14°
2026-05-05 14:58 49.69587 3.20338 31942 ft 472 kts 14°
2026-05-05 14:59 49.72817 3.21437 31364 ft 478 kts 14°
2026-05-05 14:59 49.76069 3.22542 30814 ft 478 kts 14°
2026-05-05 14:59 49.79315 3.23646 30270 ft 478 kts 14°
2026-05-05 14:59 49.82567 3.24752 29635 ft 479 kts 14°
2026-05-05 15:00 49.85805 3.25856 28923 ft 474 kts 14°
2026-05-05 15:00 49.87972 3.26594 28473 ft 469 kts 14°
2026-05-05 15:00 49.92161 3.28024 27562 ft 462 kts 13°
2026-05-05 15:00 49.95282 3.29095 26906 ft 457 kts 14°
2026-05-05 15:01 49.98383 3.30161 26270 ft 455 kts 13°
2026-05-05 15:01 50.01458 3.31219 25646 ft 452 kts 14°
2026-05-05 15:01 50.04517 3.32272 25045 ft 449 kts 14°
2026-05-05 15:01 50.07550 3.33317 24439 ft 446 kts 13°
2026-05-05 15:02 50.10571 3.34359 23849 ft 443 kts 13°
2026-05-05 15:02 50.13568 3.35394 23234 ft 440 kts 13°
2026-05-05 15:02 50.16547 3.36425 22555 ft 437 kts 13°
2026-05-05 15:02 50.19524 3.37457 21901 ft 440 kts 13°
2026-05-05 15:03 50.22527 3.38498 21255 ft 443 kts 13°
2026-05-05 15:03 50.25536 3.39542 20621 ft 442 kts 13°
2026-05-05 15:03 50.28524 3.40580 20021 ft 439 kts 13°
2026-05-05 15:03 50.31503 3.41614 19432 ft 437 kts 13°
2026-05-05 15:04 50.34451 3.42636 18938 ft 431 kts 13°
2026-05-05 15:04 50.37368 3.43657 18460 ft 426 kts 14°
2026-05-05 15:04 50.40239 3.44662 17971 ft 419 kts 14°
2026-05-05 15:04 50.43069 3.45654 17430 ft 414 kts 14°
2026-05-05 15:05 50.48612 3.47597 16426 ft 404 kts 14°
2026-05-05 15:05 50.51306 3.48719 16170 ft 399 kts 24°
2026-05-05 15:05 50.52904 3.50129 16002 ft 399 kts 39°
2026-05-05 15:06 50.54826 3.53251 15968 ft 397 kts 56°
2026-05-05 15:06 50.56112 3.57128 15822 ft 403 kts 71°
2026-05-05 15:06 50.56937 3.61290 15522 ft 394 kts 75°
2026-05-05 15:06 50.57680 3.65403 15214 ft 388 kts 75°
2026-05-05 15:07 50.58406 3.69494 14857 ft 389 kts 75°
2026-05-05 15:07 50.59137 3.73573 14353 ft 385 kts 75°
2026-05-05 15:07 50.59874 3.77613 13878 ft 382 kts 75°
2026-05-05 15:07 50.60610 3.81605 13370 ft 377 kts 74°
2026-05-05 15:08 50.61343 3.85551 12825 ft 373 kts 74°
2026-05-05 15:08 50.62069 3.89450 12319 ft 370 kts 74°
2026-05-05 15:08 50.62790 3.93323 11808 ft 367 kts 74°
2026-05-05 15:08 50.63504 3.97163 11306 ft 364 kts 74°
2026-05-05 15:09 50.64207 4.00988 10812 ft 362 kts 76°
2026-05-05 15:09 50.64509 4.04906 10311 ft 361 kts 89°
2026-05-05 15:09 50.64469 4.08850 9850 ft 359 kts 91°
2026-05-05 15:09 50.64369 4.12772 9334 ft 358 kts 92°
2026-05-05 15:10 50.64253 4.16657 8867 ft 351 kts 92°
2026-05-05 15:10 50.64137 4.20416 8754 ft 336 kts 92°
2026-05-05 15:10 50.64020 4.24022 8613 ft 323 kts 92°
2026-05-05 15:10 50.63906 4.27500 8468 ft 311 kts 92°
2026-05-05 15:11 50.63795 4.30860 8177 ft 305 kts 92°
2026-05-05 15:11 50.63688 4.34166 7886 ft 300 kts 92°
2026-05-05 15:11 50.63579 4.37431 7598 ft 297 kts 92°
2026-05-05 15:11 50.63473 4.40622 7302 ft 295 kts 92°
2026-05-05 15:12 50.63368 4.43829 7031 ft 292 kts 91°
2026-05-05 15:12 50.63267 4.47021 6729 ft 291 kts 92°
2026-05-05 15:12 50.63156 4.50194 6417 ft 289 kts 92°
2026-05-05 15:12 50.63050 4.53346 6135 ft 287 kts 92°
2026-05-05 15:13 50.62943 4.56481 5803 ft 286 kts 92°
2026-05-05 15:13 50.62826 4.59604 5413 ft 285 kts 92°
2026-05-05 15:13 50.62476 4.62641 4984 ft 281 kts 111°
2026-05-05 15:13 50.61343 4.65089 4611 ft 277 kts 140°